{"data":{"norad_id":59192,"epoch":"2026-09-20T22:00:03.000096Z","epoch_age_seconds":122786,"freshness":"FRESH","line1":"1 59192U 24045Q   26263.91670139  .00064139  00000+0  23220-2 0  9999","line2":"2 59192  43.0002  69.9957 0001489 275.5113 270.1182 15.27553079  5862","mean_motion":15.27553079,"eccentricity":0.0001489,"inclination_deg":43.0002,"raan_deg":69.9957,"arg_perigee_deg":275.5113,"mean_anomaly_deg":270.1182,"bstar":0.002322,"rev_number":586,"period_min":94.268410034084,"perigee_km":482.10806576943,"apogee_km":484.15135099519,"semimajor_km":6861.2667083823,"source":"CELESTRAK","updated_at":"2026-09-21T09:00:34.064944Z"}}